| time (UTC) | temp F | wind direction | speed knots | gust knots | rain 1hr in | rain 24hr in | rain mn in | humidity % | barometer mb |
| 20260504044601 | 52 | 5 | 0.0 | 3.5 | 0.00 | 0.07 | 0.07 | 1 | 1006.2 |
| 20260504043052 | 53 | 5 | 0.9 | 4.3 | 0.00 | 0.07 | 0.07 | 1 | 1006.2 |
| 20260504041542 | 53 | 5 | 0.0 | 4.3 | 0.00 | 0.07 | 0.07 | 1 | 1006.3 |
| 20260504040049 | 52 | 5 | 1.7 | 3.5 | 0.00 | 0.07 | 0.07 | 1 | 1006.2 |
| 20260504034533 | 53 | 5 | 2.6 | 4.3 | 0.00 | 0.07 | 0.07 | 1 | 1006.2 |
| 20260504033028 | 54 | 5 | 1.7 | 5.2 | 0.00 | 0.07 | 0.07 | 1 | 1006.1 |
| 20260504031528 | 55 | 5 | 0.9 | 3.5 | 0.00 | 0.07 | 0.07 | 1 | 1006.2 |
| 20260504030022 | 55 | 5 | 0.0 | 2.6 | 0.00 | 0.07 | 0.07 | 1 | 1006.1 |
| 20260504024515 | 56 | 5 | 0.0 | 4.3 | 0.00 | 0.07 | 0.07 | 1 | 1006.1 |
| 20260504023012 | 57 | 5 | 2.6 | 7.0 | 0.00 | 0.07 | 0.07 | 1 | 1006.0 |
| 20260504021510 | 57 | 5 | 1.7 | 5.2 | 0.00 | 0.07 | 0.07 | 1 | 1005.8 |
| 20260504020003 | 58 | 5 | 2.6 | 7.0 | 0.00 | 0.07 | 0.07 | 1 | 1005.5 |
| 20260504014607 | 59 | 5 | 1.7 | 7.0 | 0.00 | 0.07 | 0.07 | 1 | 1005.5 |
| 20260504013056 | 61 | 5 | 1.7 | 5.2 | 0.00 | 0.07 | 0.07 | 1 | 1005.4 |
| 20260504011550 | 62 | 5 | 1.7 | 8.7 | 0.00 | 0.07 | 0.07 | 1 | 1005.2 |
| 20260504010045 | 64 | 5 | 1.7 | 7.8 | 0.00 | 0.07 | 0.07 | 1 | 1005.1 |
| 20260504004541 | 66 | 5 | 5.2 | 12.2 | 0.00 | 0.07 | 0.07 | 1 | 1005.2 |
| 20260504003036 | 67 | 5 | 5.2 | 11.3 | 0.00 | 0.07 | 0.07 | 1 | 1005.1 |
| 20260504001532 | 69 | 5 | 3.5 | 13.0 | 0.00 | 0.07 | 0.07 | 1 | 1005.4 |
| 20260504000028 | 69 | 5 | 2.6 | 12.2 | 0.00 | 0.07 | 0.07 | 1 | 1005.4 |
| 20260503234526 | 69 | 5 | 3.5 | 10.4 | 0.00 | 0.07 | 0.07 | 1 | 1005.4 |
| 20260503233019 | 71 | 5 | 4.3 | 9.6 | 0.00 | 0.07 | 0.07 | 1 | 1005.2 |
| 20260503231520 | 72 | 5 | 2.6 | 12.2 | 0.00 | 0.07 | 0.07 | 1 | 1005.2 |
| 20260503230011 | 73 | 5 | 3.5 | 12.2 | 0.00 | 0.07 | 0.07 | 1 | 1005.4 |
| 20260503224506 | 72 | 5 | 4.3 | 12.2 | 0.00 | 0.07 | 0.07 | 1 | 1005.6 |
| 20260503223004 | 72 | 5 | 5.2 | 19.1 | 0.00 | 0.07 | 0.07 | 1 | 1005.7 |
| 20260503221602 | 72 | 5 | 11.3 | 20.9 | 0.00 | 0.07 | 0.07 | 1 | 1005.8 |
| 20260503220054 | 72 | 5 | 11.3 | 20.0 | 0.00 | 0.07 | 0.07 | 1 | 1005.8 |
| 20260503214559 | 72 | 5 | 5.2 | 14.8 | 0.00 | 0.07 | 0.07 | 1 | 1005.9 |
| 20260503213047 | 71 | 5 | 5.2 | 18.2 | 0.00 | 0.07 | 0.07 | 1 | 1005.9 |
| 20260503211547 | 71 | 5 | 8.7 | 19.1 | 0.00 | 0.07 | 0.07 | 1 | 1006.0 |
| 20260503210036 | 70 | 5 | 8.7 | 22.6 | 0.00 | 0.07 | 0.07 | 1 | 1006.2 |
| 20260503204533 | 70 | 5 | 9.6 | 19.1 | 0.00 | 0.07 | 0.07 | 1 | 1006.4 |
| 20260503203027 | 69 | 5 | 7.0 | 21.7 | 0.00 | 0.07 | 0.07 | 1 | 1006.8 |
| 20260503201523 | 68 | 5 | 13.9 | 25.2 | 0.00 | 0.07 | 0.07 | 1 | 1007.1 |
| 20260503200019 | 68 | 5 | 8.7 | 22.6 | 0.00 | 0.07 | 0.07 | 1 | 1007.3 |
| 20260503194514 | 67 | 5 | 7.8 | 20.9 | 0.00 | 0.07 | 0.07 | 1 | 1007.6 |
| 20260503193010 | 68 | 5 | 4.3 | 18.2 | 0.00 | 0.07 | 0.07 | 1 | 1008.0 |
| 20260503191506 | 68 | 5 | 8.7 | 21.7 | 0.00 | 0.07 | 0.07 | 1 | 1008.2 |
| 20260503190004 | 67 | 5 | 7.0 | 20.9 | 0.00 | 0.07 | 0.07 | 1 | 1008.5 |
| 20260503184602 | 66 | 5 | 7.8 | 20.0 | 0.00 | 0.07 | 0.07 | 1 | 1008.6 |
| 20260503183101 | 65 | 5 | 7.8 | 20.0 | 0.00 | 0.07 | 0.07 | 1 | 1009.0 |
| 20260503181549 | 65 | 5 | 9.6 | 22.6 | 0.00 | 0.07 | 0.07 | 1 | 1009.3 |
| 20260503180053 | 64 | 5 | 10.4 | 24.3 | 0.00 | 0.07 | 0.07 | 1 | 1009.3 |
| 20260503174540 | 64 | 5 | 10.4 | 23.5 | 0.00 | 0.07 | 0.07 | 1 | 1009.4 |
| 20260503173048 | 62 | 5 | 14.8 | 30.4 | 0.00 | 0.07 | 0.07 | 1 | 1009.3 |
| 20260503171539 | 60 | 5 | 12.2 | 29.5 | 0.00 | 0.07 | 0.07 | 1 | 1009.5 |
| 20260503150106 | 46 | 5 | 8.7 | 13.0 | 0.00 | 0.07 | 0.07 | 1 | 1012.4 |
| 20260503081601 | 42 | 5 | 2.6 | 7.0 | 0.00 | 0.00 | 0.00 | 1 | 1014.8 |